{"data":{"norad_id":60407,"epoch":"2026-05-25T04:08:18.403008Z","epoch_age_seconds":63613,"freshness":"FRESH","line1":"1 60407U 24141K   26145.17243522  .00001027  00000+0  13334-4 0  9990","line2":"2 60407  53.1599  69.3543 0001003  89.2989 270.8144 15.69709201103707","mean_motion":15.69709201,"eccentricity":0.0001003,"inclination_deg":53.1599,"raan_deg":69.3543,"arg_perigee_deg":89.2989,"mean_anomaly_deg":270.8144,"bstar":1.3334e-5,"rev_number":10370,"period_min":91.736736911692,"perigee_km":359.05322888941,"apogee_km":360.4048448164,"semimajor_km":6737.8660368529,"source":"CELESTRAK","updated_at":"2026-05-25T13:38:19.269073Z"}}